DateTime,DeltaTime,Roll,TargetAngle,Position,Power
2022-05-19 11:30:42.679,0,-35.66,-30,2,90
2022-05-19 11:30:42.794,0.114996358752251,-24.94,-30,2,90
2022-05-19 11:30:42.909,0.229992717504501,-7.12,25,1,-90
2022-05-19 11:30:43.023,0.343993306159973,10.01,25,1,-89.91
2022-05-19 11:30:43.137,0.457993894815445,19.95,25,2,-88.6
2022-05-19 11:30:43.252,0.572990253567696,20.36,25,1,-83.6
2022-05-19 11:30:43.367,0.687996670603752,13.41,-0.92,1,39.72
2022-05-19 11:30:43.482,0.802993029356003,1.78,-30,1,90
2022-05-19 11:30:43.597,0.917999446392059,-9.34,-30,2,90
2022-05-19 11:30:43.711,1.03200003504753,-15.86,-30,2,90
2022-05-19 11:30:43.825,1.1459905654192,-16.07,-30,2,90
2022-05-19 11:30:43.940,1.26099698245525,-11.21,-30,1,90
2022-05-19 11:30:44.055,1.3759933412075,-3.68,2.48,2,-49.29
2022-05-19 11:30:44.171,1.49199552834034,3.77,25,2,-90
2022-05-19 11:30:44.281,1.60199292004108,8.34,25,2,-84.91
2022-05-19 11:30:44.395,1.71599350869656,8.51,13.02,2,-24.97
2022-05-19 11:30:44.509,1.82999409735203,5.12,-14.39,1,90
2022-05-19 11:30:44.624,1.94499045610428,0.0700000000000003,-30,2,90
2022-05-19 11:30:44.739,2.05999687314034,-4.51,-30,2,90
2022-05-19 11:30:44.854,2.17499323189259,-7.02,-30,2,90
2022-05-19 11:30:44.968,2.28899382054806,-6.98,-30,2,90
2022-05-19 11:30:45.083,2.40400023758411,-4.78,-24.66,2,90
2022-05-19 11:30:45.200,2.52099819481373,-1.5,-8.46,1,17.41
2022-05-19 11:30:45.313,2.63399295508862,1.69,2.36,2,-19.54
2022-05-19 11:30:45.427,2.74799354374409,3.54,2.94,2,-2.07
2022-05-19 11:30:45.542,2.86299996078014,3.39,-6.26,2,43.27
2022-05-19 11:30:45.656,2.97699049115181,1.74,-18.58,0,90
2022-05-19 11:30:45.771,3.09199690818787,-0.36,-27.94,1,90
2022-05-19 11:30:45.886,3.20699326694012,-2.05,-30,2,90
2022-05-19 11:30:46.001,3.32199968397617,-2.71,-29.9,2,90
2022-05-19 11:30:46.115,3.43600027263165,-2.37,-24.28,3,89.66
2022-05-19 11:30:46.231,3.55199240148067,-1.35,-17.82,2,69.7
2022-05-19 11:30:46.345,3.66599299013615,-0.19,-13.05,1,48.01
2022-05-19 11:30:46.460,3.7809994071722,0.66,-11.48,1,42.71
2022-05-19 11:30:46.573,3.89399416744709,0.87,-13.56,1,57.64
2022-05-19 11:30:46.689,4.00999635457993,0.42,-17.98,2,75.84
2022-05-19 11:30:46.803,4.1239969432354,-0.34,-22.05,2,90
2022-05-19 11:30:46.918,4.23899330198765,-0.87,-22.84,2,90
2022-05-19 11:30:47.033,4.3539997190237,-0.82,-20.18,1,78.41
2022-05-19 11:30:47.147,4.46799024939537,-0.28,-16.11,2,56.51
2022-05-19 11:30:47.263,4.58399243652821,0.37,-13.41,2,54.65
2022-05-19 11:30:47.377,4.69799302518368,0.6,-14.4,1,61.83
2022-05-19 11:30:47.491,4.81199361383915,0.2,-18.55,1,76.3
2022-05-19 11:30:47.606,4.92700003087521,-0.52,-22.44,1,90
2022-05-19 11:30:47.721,5.04199638962746,-1.06,-23.59,2,90
2022-05-19 11:30:47.835,5.15599697828293,-1.02,-20.87,1,82.17
2022-05-19 11:30:47.951,5.27199916541576,-0.31,-15.47,1,52.42
2022-05-19 11:30:48.065,5.38599975407124,0.68,-10.84,2,37.66
2022-05-19 11:30:48.182,5.50299771130085,1.43,-9.2,2,41.58
2022-05-19 11:30:48.295,5.61599247157574,1.62,-10.97,2,52.31
2022-05-19 11:30:48.409,5.72999306023121,1.1,-15.94,2,72.76
2022-05-19 11:30:48.523,5.84399364888668,0.0199999999999996,-22.12,2,90
2022-05-19 11:30:48.638,5.95900006592274,-1.29,-27.74,2,90
2022-05-19 11:30:48.752,6.0729905962944,-2.26,-29.63,1,90
2022-05-19 11:30:48.868,6.18899278342724,-2.45,-26.94,1,90
2022-05-19 11:30:48.983,6.30399920046329,-1.65,-19.78,2,67.32
2022-05-19 11:30:49.097,6.41799978911877,-0.0599999999999996,-10.76,1,36.59
2022-05-19 11:30:49.212,6.53299614787102,1.76,-3.4,2,6.48
2022-05-19 11:30:49.326,6.64699673652649,3.06,-1.09,2,11.25
2022-05-19 11:30:49.441,6.76199309527874,3.06,-6.81,2,41.88
2022-05-19 11:30:49.555,6.87599368393421,1.79,-16.77,2,84.99
2022-05-19 11:30:49.671,6.99199587106705,-0.0199999999999996,-25.45,2,90
2022-05-19 11:30:49.781,7.10199326276779,-1.47,-28.96,1,90
2022-05-19 11:30:49.895,7.21599385142326,-2.07,-27.37,2,90
2022-05-19 11:30:50.010,7.33100026845932,-1.87,-23.14,1,88.6
2022-05-19 11:30:50.125,7.44599662721157,-1.01,-17.33,2,58.73
2022-05-19 11:30:50.240,7.56099298596382,0.28,-10.86,1,40.3
2022-05-19 11:30:50.354,7.67499357461929,1.64,-5.82,1,18.48
2022-05-19 11:30:50.471,7.79199153184891,2.46,-5.35,2,24.63
2022-05-19 11:30:50.584,7.9049963504076,2.3,-10.12,2,54.7
2022-05-19 11:30:50.698,8.01899693906307,1.3,-17.32,2,80.77
2022-05-19 11:30:50.812,8.13299752771854,-0.04,-23.48,2,90
2022-05-19 11:30:50.927,8.24799388647079,-1.14,-26.28,1,90
2022-05-19 11:30:51.042,8.36299024522305,-1.58,-24.95,2,90
2022-05-19 11:30:51.157,8.4779966622591,-1.26,-20.52,2,78.65
2022-05-19 11:30:51.271,8.59199725091457,-0.39,-15.07,1,55.89
2022-05-19 11:30:51.386,8.70699360966682,0.6,-11.11,2,38.19
2022-05-19 11:30:51.501,8.82200002670288,1.32,-9.74,2,43.97
2022-05-19 11:30:51.616,8.93699638545513,1.66,-10.23,2,47.98
2022-05-19 11:30:51.731,9.05199274420738,1.61,-12.05,2,54.23
2022-05-19 11:30:51.845,9.16599333286285,1.24,-14.8,2,65.6
2022-05-19 11:30:51.960,9.28099974989891,0.68,-17.59,1,75.99
2022-05-19 11:30:52.074,9.39499028027058,0.12,-19.51,2,76.93
2022-05-19 11:30:52.188,9.50899086892605,-0.35,-20.77,2,87.01
2022-05-19 11:30:52.303,9.6239972859621,-0.65,-21.05,2,85.46
2022-05-19 11:30:52.418,9.73899364471436,-0.63,-19.67,2,78.2
2022-05-19 11:30:52.533,9.85400006175041,-0.34,-17.4,2,68.62
2022-05-19 11:30:52.648,9.96899642050266,0.2,-14.46,1,56.92
2022-05-19 11:30:52.763,10.0839927792549,0.8,-12.1,2,43.95
2022-05-19 11:30:52.877,10.1979933679104,1.27,-10.96,2,48.88
2022-05-19 11:30:52.992,10.3129997849464,1.47,-11.46,2,50.36
2022-05-19 11:30:53.106,10.4269903153181,1.36,-13.24,2,58.58
2022-05-19 11:30:53.221,10.5419967323542,0.9,-16.34,2,71.77
2022-05-19 11:30:53.336,10.6569930911064,0.24,-19.52,2,83.6
2022-05-19 11:30:53.451,10.7719995081425,-0.3,-20.95,2,86.59
2022-05-19 11:30:53.565,10.8860000967979,-0.5,-20.13,2,80.62
2022-05-19 11:30:53.681,11.001992225647,-0.31,-17.76,1,69.86
2022-05-19 11:30:53.795,11.1159928143024,0.15,-14.97,1,54.01
2022-05-19 11:30:53.910,11.2309992313385,0.78,-12,2,44.08
2022-05-19 11:30:54.023,11.3439939916134,1.48,-9.3,1,40.68
2022-05-19 11:30:54.139,11.4599961787462,2.02,-8.03,1,32.58
2022-05-19 11:30:54.254,11.5749925374985,2.06,-10.14,2,46.95
2022-05-19 11:30:54.368,11.6889931261539,1.47,-14.91,2,69.96
2022-05-19 11:30:54.483,11.80399954319,0.44,-20.49,2,90
2022-05-19 11:30:54.597,11.9180001318455,-0.63,-24.38,1,90
2022-05-19 11:30:54.712,12.0329964905977,-1.3,-24.99,1,90
2022-05-19 11:30:54.827,12.14799284935,-1.35,-22.46,2,83.27
2022-05-19 11:30:54.942,12.262999266386,-0.75,-17.52,2,66.89
2022-05-19 11:30:55.055,12.3759940266609,0.29,-11.96,1,44.28
2022-05-19 11:30:55.171,12.4919962137938,1.51,-6.91,2,22.54
2022-05-19 11:30:55.285,12.6059968024492,2.56,-3.94,2,21.35
2022-05-19 11:30:55.400,12.7209931612015,3.07,-4.51,2,27.32
2022-05-19 11:30:55.511,12.8319963812828,2.67,-9.92,2,54.26
2022-05-19 11:30:55.625,12.9459969699383,1.39,-18.25,2,85.66
2022-05-19 11:30:55.740,13.0609933286905,-0.29,-25.79,2,90
2022-05-19 11:30:55.854,13.174993917346,-1.57,-28.61,2,90
2022-05-19 11:30:55.969,13.2899902760983,-1.99,-26.28,2,90
